Tracking 28081 objects as of 26-Sep-2023
HD Live streaming from Space Station
objects crossing your sky now

HOT BIRD 1

Track HOT BIRD 1 now!
HOT BIRD 1 is classified as:


NORAD ID: 23537
Int'l Code: 1995-016B
Perigee: 36,036.2 km
Apogee: 36,093.1 km
Inclination: 11.8 °
Period: 1,450.0 minutes
Semi major axis: 42435 km
RCS: 7.9621 m2 (large)
Launch date: March 28, 1995
Source: European Telecommunications Satellite Organization (EUTE)
Launch site: FRENCH GUIANA (FRGUI)

Cable programming; direct-to-home broadcasting; 16 channels, Western Europe
Your satellite tracking list
Your tracking list is empty




NASA's NSSDC Master Catalog

Two Line Element Set (TLE):
1 23537U 95016B   23268.34489028 -.00000083  00000-0  00000-0 0  9992
2 23537  11.8437  29.5654 0006702  88.0232 282.5160  0.99313085103821
Source of the keplerian elements: AFSPC